,,,PA_Meas_PMT16A,,PR_Meas_QMR101_102,,RH_Meas_QMH101,,SR_Meas_QMS101,,TA_Meas_QMH101,,GenWind,,GenWind,
date,time,status,PA,status,PR,status,RH,status,SR,status,TA,status,DirAvg,status,SpdAvg,
2009-07-24, 00:00:04,VALID,1005.14,VALID,0,VALID,94.2167,VALID,0,VALID,24.1123,VALID,356,VALID,0.536719,
2009-07-24, 00:01:04,VALID,1005.18,VALID,0,VALID,94.2472,VALID,0,VALID,24.1123,VALID,356,VALID,0.377344,
2009-07-24, 00:02:04,VALID,1005.15,VALID,0,VALID,94.3158,VALID,0,VALID,24.1318,VALID,356,VALID,0.390234,
2009-07-24, 00:03:04,VALID,1005.12,VALID,0,VALID,94.3235,VALID,0,VALID,24.1531,VALID,356,VALID,0.31875,
2009-07-24, 00:04:04,VALID,1005.14,VALID,0,VALID,94.3616,VALID,0,VALID,24.1318,VALID,356,VALID,0.315234,
2009-07-24, 00:05:04,VALID,1005.1,VALID,0,VALID,94.3769,VALID,0,VALID,24.1513,VALID,356,VALID,0.307813,
2009-07-24, 00:06:04,VALID,1005.14,VALID,0,VALID,94.3769,VALID,0,VALID,24.1513,VALID,356,VALID,0.358594,
2009-07-24, 00:07:04,VALID,1005.1,VALID,0,VALID,94.3998,VALID,0,VALID,24.1707,VALID,356,VALID,0.302344,
2009-07-24, 00:08:04,VALID,1005.12,VALID,0,VALID,94.415,VALID,0,VALID,24.1902,VALID,356,VALID,0.216797,
2009-07-24, 00:09:04,VALID,1005.11,VALID,0,VALID,94.4227,VALID,0,VALID,24.1902,VALID,356,VALID,0.236328,
2009-07-24, 00:10:04,VALID,1005.1,VALID,0,VALID,94.4379,VALID,0,VALID,24.1902,VALID,356,VALID,0.279297,
2009-07-24, 00:11:04,VALID,1005.1,VALID,0,VALID,94.3845,VALID,0,VALID,24.1902,VALID,356,VALID,0.176172,
2009-07-24, 00:12:04,VALID,1005.1,VALID,0,VALID,94.3692,VALID,0,VALID,24.1707,VALID,356,VALID,0.175391,
2009-07-24, 00:13:04,VALID,1005.08,VALID,0,VALID,94.3616,VALID,0.100563,VALID,24.1689,VALID,356,VALID,0.183203,
2009-07-24, 00:14:04,VALID,1005.07,VALID,0,VALID,94.3235,VALID,0,VALID,24.1707,VALID,356,VALID,0.141016,
2009-07-24, 00:15:04,VALID,1005.05,VALID,0,VALID,94.3158,VALID,0.100563,VALID,24.13,VALID,356,VALID,0.266797,
2009-07-24, 00:16:04,VALID,1005.02,VALID,0,VALID,94.3006,VALID,0.100563,VALID,24.1105,VALID,356,VALID,0.300781,
2009-07-24, 00:17:04,VALID,1005.02,VALID,0,VALID,94.3235,VALID,0.100563,VALID,24.0892,VALID,356,VALID,0.410547,
2009-07-24, 00:18:04,VALID,1004.98,VALID,0,VALID,94.3464,VALID,0.100563,VALID,24.1105,VALID,356,VALID,0.458594,
2009-07-24, 00:19:04,VALID,1004.95,VALID,0,VALID,94.3692,VALID,0.100563,VALID,24.1105,VALID,356,VALID,0.541016,
2009-07-24, 00:20:04,VALID,1004.88,VALID,0,VALID,94.3998,VALID,0,VALID,24.1105,VALID,356,VALID,0.433203,
2009-07-24, 00:21:04,VALID,1004.89,VALID,0,VALID,94.4074,VALID,0.100563,VALID,24.1318,VALID,356,VALID,0.349219,
2009-07-24, 00:22:04,VALID,1004.86,VALID,0,VALID,94.4074,VALID,0.100563,VALID,24.1105,VALID,356,VALID,0.255078,
2009-07-24, 00:23:04,VALID,1004.85,VALID,0,VALID,94.415,VALID,0,VALID,24.1105,VALID,356,VALID,0.110937,
2009-07-24, 00:24:04,VALID,1004.86,VALID,0,VALID,94.4455,VALID,0.100563,VALID,24.1318,VALID,356,VALID,0,
2009-07-24, 00:25:04,VALID,1004.86,VALID,0,VALID,94.4455,VALID,0.100563,VALID,24.0892,VALID,356,VALID,0,
2009-07-24, 00:26:04,VALID,1004.86,VALID,0,VALID,94.4379,VALID,0.100563,VALID,24.0697,VALID,356,VALID,0,
2009-07-24, 00:27:04,VALID,1004.87,VALID,0,VALID,94.4379,VALID,0.100563,VALID,24.091,VALID,356,VALID,0,
2009-07-24, 00:28:04,VALID,1004.86,VALID,0,VALID,94.4303,VALID,0,VALID,24.0716,VALID,356,VALID,0,
2009-07-24, 00:29:04,VALID,1004.88,VALID,0,VALID,94.4532,VALID,0,VALID,24.0521,VALID,356,VALID,0.146484,
2009-07-24, 00:30:04,VALID,1004.85,VALID,0,VALID,94.4455,VALID,0,VALID,24.0929,VALID,356,VALID,0.122656,
2009-07-24, 00:31:04,VALID,1004.84,VALID,0,VALID,94.4608,VALID,0,VALID,24.0734,VALID,356,VALID,0.125781,
2009-07-24, 00:32:04,VALID,1004.83,VALID,0,VALID,94.4455,VALID,0,VALID,24.0521,VALID,356,VALID,0.225781,
2009-07-24, 00:33:04,VALID,1004.81,VALID,0,VALID,94.4303,VALID,0,VALID,24.0734,VALID,356,VALID,0.24375,
2009-07-24, 00:34:04,VALID,1004.78,VALID,0,VALID,94.4455,VALID,0,VALID,24.0326,VALID,356,VALID,0.265234,
2009-07-24, 00:35:04,VALID,1004.79,VALID,0,VALID,94.4761,VALID,0,VALID,24.0734,VALID,356,VALID,0.294141,
2009-07-24, 00:36:04,VALID,1004.76,VALID,0,VALID,94.4761,VALID,0,VALID,24.0539,VALID,356,VALID,0.330859,
2009-07-24, 00:37:04,VALID,1004.76,VALID,0,VALID,94.4837,VALID,0,VALID,24.0539,VALID,356,VALID,0.21875,
2009-07-24, 00:38:04,VALID,1004.75,VALID,0,VALID,94.4684,VALID,0,VALID,24.015,VALID,356,VALID,0.398047,
2009-07-24, 00:39:04,VALID,1004.73,VALID,0,VALID,94.4684,VALID,0,VALID,24.015,VALID,356,VALID,0.257031,
2009-07-24, 00:40:04,VALID,1004.71,VALID,0,VALID,94.4684,VALID,0,VALID,24.015,VALID,356,VALID,0.378516,
2009-07-24, 00:41:04,VALID,1004.7,VALID,0,VALID,94.4837,VALID,0,VALID,24.0345,VALID,356,VALID,0.197266,
2009-07-24, 00:42:04,VALID,1004.7,VALID,0,VALID,94.5295,VALID,0,VALID,24.0539,VALID,356,VALID,0.298438,
2009-07-24, 00:43:04,VALID,1004.68,VALID,0,VALID,94.56,VALID,0,VALID,24.0521,VALID,356,VALID,0.277344,
2009-07-24, 00:44:04,VALID,1004.68,VALID,0,VALID,94.5676,VALID,0,VALID,24.0326,VALID,356,VALID,0.282813,
2009-07-24, 00:45:04,VALID,1004.67,VALID,0,VALID,94.5523,VALID,0.100563,VALID,24.0539,VALID,356,VALID,0.329297,
2009-07-24, 00:46:04,VALID,1004.68,VALID,0,VALID,94.5523,VALID,0.100563,VALID,24.0132,VALID,356,VALID,0.347266,
2009-07-24, 00:47:04,VALID,1004.65,VALID,0,VALID,94.5142,VALID,0.100563,VALID,23.9937,VALID,356,VALID,0.380469,
2009-07-24, 00:48:04,VALID,1004.62,VALID,0,VALID,94.5371,VALID,0,VALID,23.9937,VALID,356,VALID,0.370703,
2009-07-24, 00:49:04,VALID,1004.6,VALID,0,VALID,94.56,VALID,0,VALID,23.9937,VALID,356,VALID,0.422266,
2009-07-24, 00:50:04,VALID,1004.61,VALID,0,VALID,94.5829,VALID,0,VALID,23.9937,VALID,356,VALID,0.342187,
2009-07-24, 00:51:04,VALID,1004.59,VALID,0,VALID,94.5905,VALID,0.100563,VALID,24.0345,VALID,356,VALID,0.241406,
2009-07-24, 00:52:04,VALID,1004.58,VALID,0,VALID,94.621,VALID,0,VALID,24.015,VALID,356,VALID,0.153125,
2009-07-24, 00:53:04,VALID,1004.59,VALID,0,VALID,94.5981,VALID,0.100563,VALID,23.9742,VALID,356,VALID,0.113281,
2009-07-24, 00:54:04,VALID,1004.58,VALID,0,VALID,94.5981,VALID,0,VALID,23.9742,VALID,356,VALID,0,
2009-07-24, 00:55:04,VALID,1004.6,VALID,0,VALID,94.5905,VALID,0,VALID,23.953,VALID,356,VALID,0,
2009-07-24, 00:56:04,VALID,1004.6,VALID,0,VALID,94.5981,VALID,0.100563,VALID,23.9761,VALID,356,VALID,0,
2009-07-24, 00:57:04,VALID,1004.6,VALID,0,VALID,94.5829,VALID,0,VALID,23.9548,VALID,356,VALID,0,
2009-07-24, 00:58:04,VALID,1004.61,VALID,0,VALID,94.5752,VALID,0,VALID,23.9371,VALID,356,VALID,0.223828,
2009-07-24, 00:59:04,VALID,1004.58,VALID,0,VALID,94.5829,VALID,0,VALID,23.9353,VALID,356,VALID,0.344922,
2009-07-24, 01:00:04,VALID,1004.57,VALID,0,VALID,94.5981,VALID,0,VALID,23.9159,VALID,356,VALID,0.400391,
2009-07-24, 01:01:04,VALID,1004.55,VALID,0,VALID,94.6057,VALID,0,VALID,23.9159,VALID,356,VALID,0.338281,
2009-07-24, 01:02:04,VALID,1004.55,VALID,0,VALID,94.6286,VALID,0,VALID,23.9371,VALID,356,VALID,0.207813,
2009-07-24, 01:03:04,VALID,1004.54,VALID,0,VALID,94.621,VALID,0,VALID,23.8769,VALID,356,VALID,0.301562,
2009-07-24, 01:04:04,VALID,1004.54,VALID,0,VALID,94.6134,VALID,0,VALID,23.8575,VALID,356,VALID,0.346094,
2009-07-24, 01:05:04,VALID,1004.54,VALID,0,VALID,94.6057,VALID,0,VALID,23.8593,VALID,356,VALID,0.281641,
2009-07-24, 01:06:04,VALID,1004.55,VALID,0,VALID,94.6286,VALID,0,VALID,23.838,VALID,356,VALID,0.330078,
2009-07-24, 01:07:04,VALID,1004.57,VALID,0,VALID,94.6057,VALID,0,VALID,23.8398,VALID,356,VALID,0,
2009-07-24, 01:08:04,VALID,1004.55,VALID,0,VALID,94.6134,VALID,0,VALID,23.8185,VALID,356,VALID,0,
2009-07-24, 01:09:04,VALID,1004.55,VALID,0,VALID,94.6363,VALID,0,VALID,23.7991,VALID,356,VALID,0,
2009-07-24, 01:10:04,VALID,1004.58,VALID,0,VALID,94.6439,VALID,0,VALID,23.7778,VALID,356,VALID,0,
2009-07-24, 01:11:04,VALID,1004.57,VALID,0,VALID,94.6363,VALID,0,VALID,23.7796,VALID,356,VALID,0.0304688,
2009-07-24, 01:12:04,VALID,1004.55,VALID,0,VALID,94.6286,VALID,0,VALID,23.7601,VALID,356,VALID,0,
2009-07-24, 01:13:04,VALID,1004.55,VALID,0,VALID,94.6668,VALID,0,VALID,23.7991,VALID,356,VALID,0,
2009-07-24, 01:14:04,VALID,1004.52,VALID,0,VALID,94.6897,VALID,0,VALID,23.8185,VALID,356,VALID,0,
2009-07-24, 01:15:04,VALID,1004.5,VALID,0,VALID,94.7202,VALID,0,VALID,23.838,VALID,356,VALID,0,
2009-07-24, 01:16:04,VALID,1004.5,VALID,0,VALID,94.7431,VALID,0,VALID,23.8593,VALID,356,VALID,0,
2009-07-24, 01:17:04,VALID,1004.5,VALID,0,VALID,94.766,VALID,0,VALID,23.838,VALID,356,VALID,0,
2009-07-24, 01:18:04,VALID,1004.5,VALID,0,VALID,94.7583,VALID,0.100563,VALID,23.8575,VALID,356,VALID,0,
2009-07-24, 01:19:04,VALID,1004.53,VALID,0,VALID,94.7812,VALID,0,VALID,23.838,VALID,356,VALID,0,
2009-07-24, 01:20:04,VALID,1004.54,VALID,0,VALID,94.7736,VALID,0,VALID,23.838,VALID,356,VALID,0,
2009-07-24, 01:21:04,VALID,1004.53,VALID,0,VALID,94.766,VALID,0,VALID,23.8167,VALID,356,VALID,0,
2009-07-24, 01:22:04,VALID,1004.51,VALID,0,VALID,94.7736,VALID,0,VALID,23.838,VALID,356,VALID,0,
2009-07-24, 01:23:04,VALID,1004.55,VALID,0,VALID,94.7965,VALID,0,VALID,23.838,VALID,356,VALID,0,
2009-07-24, 01:24:04,VALID,1004.5,VALID,0,VALID,94.7812,VALID,0,VALID,23.8185,VALID,356,VALID,0,
2009-07-24, 01:25:04,VALID,1004.49,VALID,0,VALID,94.7583,VALID,0,VALID,23.7796,VALID,356,VALID,0,
2009-07-24, 01:26:04,VALID,1004.48,VALID,0,VALID,94.7736,VALID,0,VALID,23.7796,VALID,356,VALID,0,
2009-07-24, 01:27:04,VALID,1004.46,VALID,0,VALID,94.7736,VALID,0,VALID,23.7601,VALID,356,VALID,0,
2009-07-24, 01:28:04,VALID,1004.41,VALID,0,VALID,94.7583,VALID,0,VALID,23.7814,VALID,356,VALID,0,
2009-07-24, 01:29:04,VALID,1004.41,VALID,0,VALID,94.7583,VALID,0,VALID,23.7619,VALID,356,VALID,0,
2009-07-24, 01:30:04,VALID,1004.38,VALID,0,VALID,94.766,VALID,0,VALID,23.7619,VALID,356,VALID,0,
2009-07-24, 01:31:04,VALID,1004.35,VALID,0,VALID,94.7812,VALID,0,VALID,23.7814,VALID,356,VALID,0,
2009-07-24, 01:32:04,VALID,1004.31,VALID,0,VALID,94.8041,VALID,0,VALID,23.8009,VALID,356,VALID,0,
2009-07-24, 01:33:04,VALID,1004.31,VALID,0,VALID,94.7888,VALID,0,VALID,23.8009,VALID,356,VALID,0,
2009-07-24, 01:34:04,VALID,1004.3,VALID,0,VALID,94.8117,VALID,0,VALID,23.8203,VALID,356,VALID,0,
2009-07-24, 01:35:04,VALID,1004.27,VALID,0,VALID,94.827,VALID,0,VALID,23.7991,VALID,356,VALID,0,
2009-07-24, 01:36:04,VALID,1004.25,VALID,0,VALID,94.8499,VALID,0,VALID,23.8398,VALID,356,VALID,0,
2009-07-24, 01:37:04,VALID,1004.28,VALID,0,VALID,94.8651,VALID,0,VALID,23.8398,VALID,356,VALID,0,
2009-07-24, 01:38:04,VALID,1004.23,VALID,0,VALID,94.8575,VALID,0,VALID,23.8398,VALID,356,VALID,0,
2009-07-24, 01:39:04,VALID,1004.22,VALID,0,VALID,94.8651,VALID,0,VALID,23.8203,VALID,356,VALID,0,
2009-07-24, 01:40:04,VALID,1004.21,VALID,0,VALID,94.8575,VALID,0,VALID,23.8009,VALID,356,VALID,0,
2009-07-24, 01:41:04,VALID,1004.23,VALID,0,VALID,94.8575,VALID,0,VALID,23.8398,VALID,356,VALID,0,
2009-07-24, 01:42:04,VALID,1004.21,VALID,0,VALID,94.8575,VALID,0,VALID,23.8593,VALID,356,VALID,0,
2009-07-24, 01:43:04,VALID,1004.21,VALID,0,VALID,94.8956,VALID,0,VALID,23.8751,VALID,356,VALID,0,
2009-07-24, 01:44:04,VALID,1004.2,VALID,0,VALID,94.9185,VALID,0,VALID,23.9371,VALID,356,VALID,0,
2009-07-24, 01:45:04,VALID,1004.19,VALID,0,VALID,94.9033,VALID,0,VALID,23.8946,VALID,356,VALID,0,
2009-07-24, 01:46:04,VALID,1004.2,VALID,0,VALID,94.9033,VALID,0,VALID,23.9353,VALID,356,VALID,0,
2009-07-24, 01:47:04,VALID,1004.18,VALID,0,VALID,94.8956,VALID,0,VALID,23.9335,VALID,356,VALID,0,
2009-07-24, 01:48:04,VALID,1004.16,VALID,0,VALID,94.9262,VALID,0,VALID,23.9742,VALID,356,VALID,0,
2009-07-24, 01:49:04,VALID,1004.17,VALID,0,VALID,94.9414,VALID,0,VALID,24.0132,VALID,356,VALID,0,
2009-07-24, 01:50:04,VALID,1004.18,VALID,0,VALID,94.9262,VALID,0.100563,VALID,23.9937,VALID,356,VALID,0,
2009-07-24, 01:51:04,VALID,1004.16,VALID,0,VALID,94.9338,VALID,0,VALID,23.9937,VALID,356,VALID,0,
2009-07-24, 01:52:04,VALID,1004.15,VALID,0,VALID,94.9338,VALID,0.100563,VALID,24.0132,VALID,356,VALID,0,
2009-07-24, 01:53:04,VALID,1004.14,VALID,0,VALID,94.9262,VALID,0,VALID,24.0326,VALID,356,VALID,0,
2009-07-24, 01:54:04,VALID,1004.15,VALID,0,VALID,94.9414,VALID,0,VALID,24.0132,VALID,356,VALID,0,
2009-07-24, 01:55:04,VALID,1004.17,VALID,0,VALID,94.9338,VALID,0,VALID,24.0326,VALID,356,VALID,0,
2009-07-24, 01:56:04,VALID,1004.14,VALID,0,VALID,94.9567,VALID,0,VALID,24.0716,VALID,356,VALID,0,
2009-07-24, 01:57:04,VALID,1004.12,VALID,0,VALID,94.949,VALID,0,VALID,24.0308,VALID,356,VALID,0,
2009-07-24, 01:58:04,VALID,1004.13,VALID,0,VALID,94.9567,VALID,0.100563,VALID,24.0716,VALID,356,VALID,0,
2009-07-24, 01:59:04,VALID,1004.12,VALID,0,VALID,94.9643,VALID,0,VALID,24.0716,VALID,356,VALID,0,
2009-07-24, 02:00:04,VALID,1004.13,VALID,0,VALID,94.9567,VALID,0,VALID,24.091,VALID,356,VALID,0,
2009-07-24, 02:01:04,VALID,1004.14,VALID,0,VALID,94.949,VALID,0.100563,VALID,24.091,VALID,356,VALID,0,
2009-07-24, 02:02:04,VALID,1004.14,VALID,0,VALID,94.9262,VALID,0.100563,VALID,24.0716,VALID,356,VALID,0,
2009-07-24, 02:03:04,VALID,1004.14,VALID,0,VALID,94.9414,VALID,0,VALID,24.0716,VALID,356,VALID,0,
2009-07-24, 02:04:04,VALID,1004.15,VALID,0,VALID,94.9338,VALID,0.100563,VALID,24.0521,VALID,356,VALID,0,
2009-07-24, 02:05:04,VALID,1004.13,VALID,0,VALID,94.9338,VALID,0,VALID,24.0503,VALID,356,VALID,0,
2009-07-24, 02:06:04,VALID,1004.14,VALID,0,VALID,94.9185,VALID,0.100563,VALID,24.0716,VALID,356,VALID,0,
2009-07-24, 02:07:04,VALID,1004.15,VALID,0,VALID,94.9338,VALID,0.100563,VALID,24.0308,VALID,356,VALID,0,
2009-07-24, 02:08:04,VALID,1004.12,VALID,0,VALID,94.9338,VALID,0.100563,VALID,24.0521,VALID,356,VALID,0,
2009-07-24, 02:09:04,VALID,1004.13,VALID,0,VALID,94.9109,VALID,0.100563,VALID,24.0308,VALID,356,VALID,0,
2009-07-24, 02:10:04,VALID,1004.12,VALID,0,VALID,94.9109,VALID,0.100563,VALID,24.0308,VALID,356,VALID,0,
2009-07-24, 02:11:04,VALID,1004.14,VALID,0,VALID,94.9109,VALID,0.100563,VALID,24.0326,VALID,356,VALID,0,
2009-07-24, 02:12:04,VALID,1004.12,VALID,0,VALID,94.9033,VALID,0.100563,VALID,24.0521,VALID,356,VALID,0,
2009-07-24, 02:13:04,VALID,1004.13,VALID,0,VALID,94.9033,VALID,0.100563,VALID,24.0521,VALID,356,VALID,0,
2009-07-24, 02:14:04,VALID,1004.15,VALID,0,VALID,94.9109,VALID,0.100563,VALID,24.0521,VALID,356,VALID,0,
2009-07-24, 02:15:04,VALID,1004.17,VALID,0,VALID,94.9262,VALID,0.100563,VALID,24.0521,VALID,356,VALID,0,
2009-07-24, 02:16:04,VALID,1004.15,VALID,0,VALID,94.9109,VALID,0.100563,VALID,24.0521,VALID,356,VALID,0,
2009-07-24, 02:17:04,VALID,1004.15,VALID,0,VALID,94.9109,VALID,0.100563,VALID,24.0716,VALID,356,VALID,0,
2009-07-24, 02:18:04,VALID,1004.17,VALID,0,VALID,94.9109,VALID,0,VALID,24.0521,VALID,356,VALID,0,
2009-07-24, 02:19:04,VALID,1004.16,VALID,0,VALID,94.9185,VALID,0.100563,VALID,24.0539,VALID,356,VALID,0,
2009-07-24, 02:20:04,VALID,1004.2,VALID,0,VALID,94.8956,VALID,0.100563,VALID,24.0326,VALID,356,VALID,0,
2009-07-24, 02:21:04,VALID,1004.2,VALID,0,VALID,94.8956,VALID,0,VALID,24.0132,VALID,356,VALID,0,
2009-07-24, 02:22:04,VALID,1004.2,VALID,0,VALID,94.8956,VALID,0.100563,VALID,24.0114,VALID,356,VALID,0,
2009-07-24, 02:23:04,VALID,1004.2,VALID,0,VALID,94.9033,VALID,0.100563,VALID,24.0132,VALID,356,VALID,0,
2009-07-24, 02:24:04,VALID,1004.2,VALID,0,VALID,94.9109,VALID,0.100563,VALID,23.9919,VALID,356,VALID,0,
2009-07-24, 02:25:04,VALID,1004.19,VALID,0,VALID,94.8956,VALID,0.100563,VALID,24.0132,VALID,356,VALID,0,
2009-07-24, 02:26:04,VALID,1004.19,VALID,0,VALID,94.9185,VALID,0.100563,VALID,24.0132,VALID,356,VALID,0,
2009-07-24, 02:27:04,VALID,1004.2,VALID,0,VALID,94.9338,VALID,0.100563,VALID,24.0132,VALID,356,VALID,0,
2009-07-24, 02:28:04,VALID,1004.19,VALID,0,VALID,94.9185,VALID,0.100563,VALID,24.0521,VALID,356,VALID,0,
2009-07-24, 02:29:04,VALID,1004.2,VALID,0,VALID,94.9338,VALID,0.100563,VALID,24.091,VALID,356,VALID,0,
2009-07-24, 02:30:04,VALID,1004.21,VALID,0,VALID,94.9414,VALID,0.100563,VALID,24.1087,VALID,356,VALID,0,
2009-07-24, 02:31:04,VALID,1004.23,VALID,0,VALID,94.9796,VALID,0.100563,VALID,24.1494,VALID,356,VALID,0,
2009-07-24, 02:32:04,VALID,1004.25,VALID,0,VALID,94.9796,VALID,0.100563,VALID,24.1494,VALID,356,VALID,0.407813,
2009-07-24, 02:33:04,VALID,1004.25,VALID,0,VALID,94.9872,VALID,0.100563,VALID,24.1689,VALID,356,VALID,0.361328,
2009-07-24, 02:34:04,VALID,1004.26,VALID,0,VALID,94.9872,VALID,0.100563,VALID,24.1476,VALID,356,VALID,0.398047,
2009-07-24, 02:35:04,VALID,1004.24,VALID,0,VALID,94.9643,VALID,0.100563,VALID,24.1494,VALID,356,VALID,0.425,
2009-07-24, 02:36:04,VALID,1004.24,VALID,0,VALID,94.9796,VALID,0.100563,VALID,24.1494,VALID,356,VALID,0.423438,
2009-07-24, 02:37:04,VALID,1004.23,VALID,0,VALID,94.9643,VALID,0.100563,VALID,24.1494,VALID,356,VALID,0.276953,
2009-07-24, 02:38:04,VALID,1004.22,VALID,0,VALID,94.9796,VALID,0.100563,VALID,24.1494,VALID,356,VALID,0.274219,
2009-07-24, 02:39:04,VALID,1004.25,VALID,0,VALID,94.9643,VALID,0.100563,VALID,24.1494,VALID,356,VALID,0.197266,
2009-07-24, 02:40:04,VALID,1004.26,VALID,0,VALID,94.9643,VALID,0.100563,VALID,24.1476,VALID,356,VALID,0,
2009-07-24, 02:41:04,VALID,1004.26,VALID,0,VALID,94.9872,VALID,0.100563,VALID,24.1884,VALID,356,VALID,0.132031,
2009-07-24, 02:42:04,VALID,1004.26,VALID,0,VALID,94.9948,VALID,0.100563,VALID,24.1884,VALID,356,VALID,0.000390625,
2009-07-24, 02:43:04,VALID,1004.26,VALID,0,VALID,94.9796,VALID,0.100563,VALID,24.2078,VALID,356,VALID,0.285547,
2009-07-24, 02:44:04,VALID,1004.27,VALID,0,VALID,94.9872,VALID,0,VALID,24.2078,VALID,356,VALID,0.0886719,
2009-07-24, 02:45:04,VALID,1004.25,VALID,0,VALID,94.9796,VALID,0.100563,VALID,24.2078,VALID,356,VALID,0.0664063,
2009-07-24, 02:46:04,VALID,1004.26,VALID,0,VALID,95.0024,VALID,0.100563,VALID,24.2273,VALID,356,VALID,0.239453,
2009-07-24, 02:47:04,VALID,1004.22,VALID,0,VALID,94.9796,VALID,0.100563,VALID,24.2468,VALID,356,VALID,0.232812,
2009-07-24, 02:48:04,VALID,1004.21,VALID,0,VALID,95.0024,VALID,0,VALID,24.2662,VALID,356,VALID,0.171094,
2009-07-24, 02:49:04,VALID,1004.21,VALID,0,VALID,95.0177,VALID,0,VALID,24.2857,VALID,356,VALID,0.389453,
2009-07-24, 02:50:04,VALID,1004.19,VALID,0,VALID,95.0177,VALID,0,VALID,24.2644,VALID,356,VALID,0.272266,
2009-07-24, 02:51:04,VALID,1004.22,VALID,0,VALID,95.0177,VALID,0.100563,VALID,24.2857,VALID,356,VALID,0.327734,
2009-07-24, 02:52:04,VALID,1004.2,VALID,0,VALID,94.9948,VALID,0.100563,VALID,24.2468,VALID,356,VALID,0.354688,
2009-07-24, 02:53:04,VALID,1004.16,VALID,0,VALID,94.9719,VALID,0,VALID,24.2273,VALID,356,VALID,0.413281,
2009-07-24, 02:54:04,VALID,1004.19,VALID,0,VALID,94.9567,VALID,0.100563,VALID,24.2255,VALID,356,VALID,0.363281,
2009-07-24, 02:55:04,VALID,1004.14,VALID,0,VALID,94.9719,VALID,0.100563,VALID,24.2273,VALID,356,VALID,0.374609,
2009-07-24, 02:56:04,VALID,1004.12,VALID,0,VALID,94.9643,VALID,0.100563,VALID,24.2078,VALID,356,VALID,0.375391,
2009-07-24, 02:57:04,VALID,1004.11,VALID,0,VALID,94.949,VALID,0.100563,VALID,24.2078,VALID,356,VALID,0.303125,
2009-07-24, 02:58:04,VALID,1004.11,VALID,0,VALID,94.9643,VALID,0,VALID,24.2078,VALID,356,VALID,0.220703,
2009-07-24, 02:59:04,VALID,1004.08,VALID,0,VALID,94.949,VALID,0.100563,VALID,24.2273,VALID,356,VALID,0.251563,
2009-07-24, 03:00:04,VALID,1004.07,VALID,0,VALID,94.9567,VALID,0,VALID,24.2078,VALID,356,VALID,0.258984,
2009-07-24, 03:01:04,VALID,1004.05,VALID,0,VALID,94.9338,VALID,0,VALID,24.1884,VALID,356,VALID,0.272656,
2009-07-24, 03:02:04,VALID,1004.07,VALID,0,VALID,94.9414,VALID,0,VALID,24.2097,VALID,356,VALID,0.335547,
2009-07-24, 03:03:04,VALID,1004.07,VALID,0,VALID,94.9414,VALID,0,VALID,24.1884,VALID,356,VALID,0.364062,
2009-07-24, 03:04:04,VALID,1004.08,VALID,0,VALID,94.9414,VALID,0,VALID,24.1689,VALID,356,VALID,0.509375,
2009-07-24, 03:05:04,VALID,1004.08,VALID,0,VALID,94.9185,VALID,0.100563,VALID,24.1689,VALID,355,VALID,0.564062,
2009-07-24, 03:06:04,VALID,1004.08,VALID,0,VALID,94.9414,VALID,0,VALID,24.1689,VALID,355,VALID,0.530078,
2009-07-24, 03:07:04,VALID,1004.05,VALID,0,VALID,94.9262,VALID,0,VALID,24.1689,VALID,355,VALID,0.385547,
2009-07-24, 03:08:04,VALID,1004.06,VALID,0,VALID,94.9109,VALID,0.100563,VALID,24.1476,VALID,355,VALID,0.301953,
2009-07-24, 03:09:04,VALID,1004.09,VALID,0,VALID,94.9262,VALID,0.100563,VALID,24.1689,VALID,355,VALID,0.348828,
2009-07-24, 03:10:04,VALID,1004.07,VALID,0,VALID,94.9185,VALID,0,VALID,24.1689,VALID,355,VALID,0.348047,
2009-07-24, 03:11:04,VALID,1004.05,VALID,0,VALID,94.9185,VALID,0,VALID,24.1494,VALID,355,VALID,0.345313,
2009-07-24, 03:12:04,VALID,1004.04,VALID,0,VALID,94.9033,VALID,0,VALID,24.1513,VALID,355,VALID,0.323438,
2009-07-24, 03:13:04,VALID,1004,VALID,0,VALID,94.9109,VALID,0.100563,VALID,24.1902,VALID,355,VALID,0.282031,
2009-07-24, 03:14:04,VALID,1004.01,VALID,0,VALID,94.888,VALID,0,VALID,24.1494,VALID,355,VALID,0.285937,
2009-07-24, 03:15:04,VALID,1004,VALID,0,VALID,94.9033,VALID,0,VALID,24.13,VALID,355,VALID,0.289063,
2009-07-24, 03:16:04,VALID,1003.99,VALID,0,VALID,94.8956,VALID,0,VALID,24.13,VALID,355,VALID,0.187891,
2009-07-24, 03:17:04,VALID,1003.95,VALID,0,VALID,94.8956,VALID,0,VALID,24.1087,VALID,355,VALID,0.189063,
2009-07-24, 03:18:04,VALID,1003.91,VALID,0,VALID,94.9109,VALID,0,VALID,24.13,VALID,355,VALID,0,
2009-07-24, 03:19:04,VALID,1003.92,VALID,0,VALID,94.8956,VALID,0,VALID,24.0892,VALID,355,VALID,0,
2009-07-24, 03:20:04,VALID,1003.93,VALID,0,VALID,94.888,VALID,0,VALID,24.091,VALID,355,VALID,0,
2009-07-24, 03:21:04,VALID,1003.92,VALID,0,VALID,94.8956,VALID,0,VALID,24.1105,VALID,355,VALID,0,
2009-07-24, 03:22:04,VALID,1003.91,VALID,0,VALID,94.9262,VALID,0,VALID,24.1494,VALID,355,VALID,0,
2009-07-24, 03:23:04,VALID,1003.91,VALID,0,VALID,94.9414,VALID,0,VALID,24.1494,VALID,355,VALID,0,
2009-07-24, 03:24:04,VALID,1003.9,VALID,0,VALID,94.949,VALID,0.100563,VALID,24.1494,VALID,355,VALID,0,
2009-07-24, 03:25:04,VALID,1003.88,VALID,0,VALID,94.9414,VALID,0,VALID,24.1494,VALID,355,VALID,0,
2009-07-24, 03:26:04,VALID,1003.91,VALID,0,VALID,94.9414,VALID,0,VALID,24.1707,VALID,355,VALID,0,
2009-07-24, 03:27:04,VALID,1003.88,VALID,0,VALID,94.9414,VALID,0.100563,VALID,24.1105,VALID,355,VALID,0,
2009-07-24, 03:28:04,VALID,1003.89,VALID,0,VALID,94.949,VALID,0.100563,VALID,24.1105,VALID,355,VALID,0,
2009-07-24, 03:29:04,VALID,1003.92,VALID,0,VALID,94.9262,VALID,0,VALID,24.1105,VALID,355,VALID,0,
2009-07-24, 03:30:04,VALID,1003.92,VALID,0,VALID,94.9567,VALID,0.100563,VALID,24.13,VALID,355,VALID,0,
2009-07-24, 03:31:04,VALID,1003.94,VALID,0,VALID,94.9338,VALID,0.100563,VALID,24.1494,VALID,355,VALID,0,
2009-07-24, 03:32:04,VALID,1003.96,VALID,0,VALID,94.9643,VALID,0.100563,VALID,24.1494,VALID,355,VALID,0,
2009-07-24, 03:33:04,VALID,1003.98,VALID,0,VALID,94.9414,VALID,0,VALID,24.1494,VALID,355,VALID,0,
2009-07-24, 03:34:04,VALID,1003.95,VALID,0,VALID,94.949,VALID,0.100563,VALID,24.1707,VALID,355,VALID,0,
2009-07-24, 03:35:04,VALID,1003.94,VALID,0,VALID,94.9414,VALID,0.100563,VALID,24.1494,VALID,355,VALID,0,
2009-07-24, 03:36:04,VALID,1003.95,VALID,0,VALID,94.949,VALID,0,VALID,24.1689,VALID,355,VALID,0,
2009-07-24, 03:37:04,VALID,1003.97,VALID,0,VALID,94.9414,VALID,0,VALID,24.1689,VALID,355,VALID,0,
2009-07-24, 03:38:04,VALID,1003.94,VALID,0,VALID,94.9414,VALID,0,VALID,24.1689,VALID,355,VALID,0,
2009-07-24, 03:39:04,VALID,1003.93,VALID,0,VALID,94.9414,VALID,0.100563,VALID,24.1689,VALID,355,VALID,0,
2009-07-24, 03:40:04,VALID,1003.94,VALID,0,VALID,94.9414,VALID,0.100563,VALID,24.1671,VALID,355,VALID,0,
2009-07-24, 03:41:04,VALID,1003.96,VALID,0,VALID,94.9338,VALID,0.100563,VALID,24.1689,VALID,355,VALID,0,
2009-07-24, 03:42:04,VALID,1003.92,VALID,0,VALID,94.9338,VALID,0,VALID,24.1689,VALID,355,VALID,0,
2009-07-24, 03:43:04,VALID,1003.96,VALID,0,VALID,94.9262,VALID,0.100563,VALID,24.1494,VALID,355,VALID,0,
2009-07-24, 03:44:04,VALID,1003.96,VALID,0,VALID,94.9262,VALID,0,VALID,24.13,VALID,355,VALID,0,
2009-07-24, 03:45:04,VALID,1003.96,VALID,0,VALID,94.9338,VALID,0.100563,VALID,24.13,VALID,355,VALID,0,
2009-07-24, 03:46:04,VALID,1003.93,VALID,0,VALID,94.9185,VALID,0.100563,VALID,24.13,VALID,355,VALID,0,